Content
SEND FEEDBACK

Daily
Averages
Monthly
Summary
United States of America

HAZELWOOD, MISSOURI


Home > North America > United States > Missouri
Elevation: 174 meters     Latitude: 38 45N     Longitude: 090 22W

WEATHER
 
SELECT A DAY
Number of Records: 196,619;   Date Range: 1/1/95 - 9/16/14
 
SHARE

PRINT THIS DATA

[ ← Previous Day ]
WEATHER ALMANAC - 23 JANUARY, 2013
[ Next Day → ]
[ °F ]   °C
Weather ElementAverageHighLow
Temperature-3 °C6.1 °C (2:54 pm)-11.7 °C (5:54 am)
Dewpoint-9.7 °C-6.7 °C (4:54 pm)-14.4 °C (5:54 am)
Humidity62.6 %84 % (1:54 am)38 % (2:54 pm)
Barometer1025.7 hPa1029.5 hPa (1:54 am)1020.7 hPa (3:54 pm)
Wind Speed6.8 km/h20.4 km/h (2:54 pm)
Wind Gust27.8 km/h (10:54 pm)
Weather ElementAverage
Visibility15.9 km
Wind DirectionSSE (165.7 °)

Weather ElementTotal
Precipitation---
Heating Degree Days21.2 (Base 18.3)
Averaged from 23 records on 23 January, 2013
WEATHER CONDITIONS BREAKOUT
WIND DIRECTION BREAKOUT
WEATHER BY HOUR - 23 JANUARY, 2013
[ °F ]   °C
Local TimeTemperatureDewpointHumidityBarometerVisibilityWind DirectionWind SpeedGust SpeedPrecipitationEventsConditions
1:54 AM-11.1 °C-13.3 °C84 %1029.5 hPa16.1 kmCalmClear
2:54 AM-10.6 °C-13.3 °C81 %1029.1 hPa16.1 kmCalmClear
3:54 AM-11.1 °C-13.3 °C84 %1027.8 hPa16.1 kmCalmClear
4:54 AM-10.6 °C-13.3 °C81 %1027.8 hPa16.1 kmCalmClear
5:54 AM-11.7 °C-14.4 °C81 %1027.4 hPa16.1 kmCalmClear
6:54 AM-11.1 °C-13.9 °C80 %1027.4 hPa14.5 kmCalmClear
7:54 AM-10.6 °C-12.8 °C84 %1027.4 hPa14.5 kmCalmClear
8:54 AM-7.2 °C-11.1 °C74 %1026.8 hPa16.1 kmCalmClear
9:54 AM-2.8 °C-9.4 °C61 %1026.4 hPa16.1 kmWest (260°)9.3 km/hClear
10:54 AM-1.1 °C-8.9 °C56 %1025.7 hPa16.1 kmCalmClear
11:54 AM1.7 °C-7.8 °C50 %1024.4 hPa16.1 kmWNW (290°)9.3 km/hPartly Cloudy
12:54 PM2.8 °C-7.8 °C46 %1023 hPa16.1 kmWSW (240°)9.3 km/hScattered Clouds
1:54 PM4.4 °C-7.2 °C43 %1022.4 hPa16.1 kmWest (270°)13 km/hClear
2:54 PM6.1 °C-7.2 °C38 %1022 hPa16.1 kmWest (280°)20.4 km/hClear
3:54 PM6 °C-7 °C39 %1020.7 hPa16.1 kmWest (260°)14.8 km/hClear
4:54 PM3.9 °C-6.7 °C46 %1022.4 hPa16.1 kmWest (280°)7.4 km/hScattered Clouds
5:54 PM-0.6 °C-6.7 °C64 %1023 hPa16.1 kmCalmScattered Clouds
6:54 PM-2.2 °C-7.2 °C69 %1024.4 hPa16.1 kmWest (280°)5.6 km/hClear
7:54 PM1.1 °C-6.7 °C56 %1025.1 hPa16.1 kmWNW (290°)9.3 km/hClear
8:54 PM-0.6 °C-6.7 °C64 %1026.1 hPa16.1 kmNNW (340°)11.1 km/hClear
9:54 PM0 °C-8.3 °C54 %1026.8 hPa16.1 kmNNW (330°)18.5 km/hClear
10:54 PM-1.1 °C-10.6 °C49 %1027.8 hPa16.1 kmNNW (340°)16.7 km/h27.8 km/hClear
11:54 PM-2.2 °C-10 °C56 %1028.8 hPa16.1 kmNorth (350°)11.1 km/hClear
Hourly data recorded from KSUS, located 0 kilometers away from Hazelwood, Missouri







STORIES FROM OUR PARTNERS